Stations météo

réclame
Mon MeteoGroup
Cardinham, Grande-Bretagne (3823): Température de l'air & dewpoint: 11.02.2019 12:00:00 - 17.02.2019 12:00:00 (GMT)Cardinham, Grande-Bretagne (3823): Température de l'air -20cm & Température de l'air -100cm: 11.02.2019 12:00:00 - 17.02.2019 12:00:00 (GMT)Cardinham, Grande-Bretagne (3823): Vitesse du vent & gusts: 11.02.2019 12:00:00 - 17.02.2019 12:00:00 (GMT)Cardinham, Grande-Bretagne (3823): Direction du vent: 11.02.2019 12:00:00 - 17.02.2019 12:00:00 (GMT)Cardinham, Grande-Bretagne (3823): reduced air pressure: 11.02.2019 12:00:00 - 17.02.2019 12:00:00 (GMT)Cardinham, Grande-Bretagne (3823): visibility: 11.02.2019 12:00:00 - 17.02.2019 12:00:00 (GMT)Cardinham, Grande-Bretagne (3823): Quantités de précipitations: 11.02.2019 12:00:00 - 17.02.2019 12:00:00 (GMT)
Date & Time tt [°C] td [°C] tt -20cm [°C] tt -100cm [°C] ff [km/h] ff [knt] fx [km/h] fx [knt] dd ppp [hPa] vv [km] rr [mm]
17.02.2019 12:00:00 11,2 9,0 - - 26 14 - - SSW 1012,3 13 -
17.02.2019 11:00:00 10,6 8,8 - - 21 11 - - SW 1012,0 14 -
17.02.2019 10:00:00 9,5 8,9 - - 18 10 - - SSW 1011,7 12 0,0
17.02.2019 09:00:00 9,7 9,5 7,7 7,7 28 15 48 26 SSW 1011,2 11 0,2
17.02.2019 08:00:00 9,4 9,3 - - 29 16 - - S 1010,7 3,6 0,0
17.02.2019 07:00:00 8,9 8,5 - - 26 14 - - S 1010,7 7 0,0
17.02.2019 06:00:00 8,2 7,1 - - 26 14 - - SE 1010,6 13 0,0
17.02.2019 05:00:00 7,9 6,2 - - 26 14 - - SE 1011,4 15 0,0
17.02.2019 04:00:00 7,9 5,8 - - 29 16 46 25 SSE 1012,0 16 0,0
17.02.2019 03:00:00 7,9 5,5 - - 31 17 - - SSE 1013,0 17 0,0
17.02.2019 02:00:00 8,1 5,8 - - 34 18 46 25 SSE 1013,3 16 0,0
17.02.2019 01:00:00 8,4 6,3 - - 31 17 46 25 SSE 1014,1 15 0,0
17.02.2019 00:00:00 8,9 7,2 - - 35 19 52 28 SSE 1014,6 17 0,0
16.02.2019 23:00:00 8,8 8,8 - - 29 16 - - SE 1015,6 5 0,0
16.02.2019 22:00:00 9,0 9,0 - - 28 15 46 25 SE 1016,7 0,4 0,0
16.02.2019 21:00:00 9,2 9,0 - - 29 16 48 26 SE 1017,4 8 0,0
16.02.2019 20:00:00 9,4 9,3 - - 28 15 48 26 SSE 1018,2 5 0,0
16.02.2019 19:00:00 9,4 8,9 - - 34 18 50 27 SSE 1018,7 12 0,0
16.02.2019 18:00:00 9,3 8,8 - - 29 16 48 26 SSE 1018,8 10 0,0
16.02.2019 17:00:00 9,5 9,2 - - 29 16 46 25 S 1018,8 9 0,0
16.02.2019 16:00:00 9,8 9,8 - - 28 15 - - S 1019,0 5 0,0
16.02.2019 15:00:00 10,0 10,0 - - 28 15 - - S 1019,5 0,7 0,2
16.02.2019 14:00:00 10,2 10,2 - - 22 12 - - S 1020,2 0,1 0,0
16.02.2019 13:00:00 10,2 10,2 - - 21 11 - - S 1021,1 0,3 0,0
16.02.2019 12:00:00 10,2 10,2 - - 24 13 - - S 1021,5 0,1 0,0
16.02.2019 11:00:00 10,1 10,1 - - 22 12 - - S 1021,6 0,2 0,0
16.02.2019 10:00:00 10,1 10,0 - - 28 15 - - S 1021,3 7 0,0
16.02.2019 09:00:00 9,5 9,3 7,5 7,7 21 11 - - S 1021,5 7 0,0
16.02.2019 08:00:00 8,9 8,9 - - 16 9 - - S 1021,4 2,2 0,0
16.02.2019 07:00:00 8,5 8,2 - - 13 7 - - S 1021,4 5 0,0
16.02.2019 06:00:00 8,9 8,3 - - 11 6 - - S 1021,2 9 0,0
16.02.2019 05:00:00 9,2 8,3 - - 13 7 - - SW 1021,5 13 0,0
16.02.2019 04:00:00 9,7 9,3 - - 21 11 - - SW 1021,4 8 0,0
16.02.2019 03:00:00 10,0 9,6 - - 18 10 - - SW 1021,6 11 0,0
16.02.2019 02:00:00 10,0 10,0 - - 16 9 - - SSW 1021,8 10 0,0
16.02.2019 01:00:00 9,9 9,9 - - 15 8 - - S 1022,0 0,1 0,0
16.02.2019 00:00:00 9,9 9,9 - - 13 7 - - S 1022,4 0,1 0,2
15.02.2019 23:00:00 9,7 9,7 - - 15 8 - - S 1022,6 1,0 0,0
15.02.2019 22:00:00 9,6 9,5 - - 18 10 - - SSE 1022,8 5 0,0
15.02.2019 21:00:00 9,3 9,2 - - 22 12 - - S 1022,4 4,1 0,0
15.02.2019 20:00:00 9,2 9,2 - - 26 14 - - S 1022,6 5 0,0
15.02.2019 19:00:00 9,0 8,8 - - 24 13 - - S 1022,9 4,5 0,0
15.02.2019 18:00:00 8,5 8,2 - - 24 13 - - SSE 1022,7 6 0,0
15.02.2019 17:00:00 8,9 8,2 - - 22 12 - - SSE 1022,6 8 0,0
15.02.2019 16:00:00 9,7 8,0 - - 22 12 - - SSE 1022,5 11 0,0
15.02.2019 15:00:00 10,9 8,7 - - 22 12 - - SSE 1023,0 12 0,0
15.02.2019 14:00:00 11,9 9,0 - - 22 12 - - SE 1023,2 16 0,0
15.02.2019 13:00:00 11,3 8,6 - - 26 14 - - SSE 1023,8 14 0,0
15.02.2019 12:00:00 11,1 8,9 - - 24 13 - - SSE 1024,7 15 0,0
15.02.2019 11:00:00 10,2 8,6 - - 22 12 - - SSE 1025,1 11 0,0
15.02.2019 10:00:00 8,0 8,0 - - 18 10 - - ESE 1025,5 2,9 0,0
15.02.2019 09:00:00 6,7 6,7 7,2 7,7 21 11 - - SE 1025,6 0,1 0,0
15.02.2019 08:00:00 6,6 6,6 - - 16 9 - - SE 1025,4 - 0,0
15.02.2019 07:00:00 6,3 6,3 - - 24 13 - - SE 1025,1 0,4 0,0
15.02.2019 06:00:00 6,1 6,1 - - 21 11 - - SSE 1025,1 2,7 0,2
15.02.2019 05:00:00 6,2 5,8 - - 21 11 - - SE 1025,1 4,8 0,0
15.02.2019 04:00:00 5,7 5,5 - - 16 9 - - SE 1025,1 6 0,0
15.02.2019 03:00:00 5,6 5,6 - - 18 10 - - SE 1025,5 2,7 0,0
15.02.2019 02:00:00 5,2 5,2 - - 22 12 - - SE 1026,0 1,8 0,0
15.02.2019 01:00:00 4,9 4,7 - - 21 11 - - SE 1026,5 3,6 0,0
15.02.2019 00:00:00 5,1 4,8 - - 21 11 - - SE 1026,6 5 0,0
14.02.2019 23:00:00 5,1 4,9 - - 22 12 - - SE 1026,7 5 0,0
14.02.2019 22:00:00 4,9 4,7 - - 28 15 - - SE 1026,9 4,2 0,0
14.02.2019 21:00:00 5,1 4,9 - - 28 15 - - SE 1026,8 4,4 0,0
14.02.2019 20:00:00 5,1 4,6 - - 28 15 - - SE 1027,2 6 0,0
14.02.2019 19:00:00 5,6 4,2 - - 26 14 - - SE 1027,2 14 0,0
14.02.2019 18:00:00 6,3 3,3 - - 24 13 - - SE 1027,1 20 0,0
14.02.2019 17:00:00 7,4 2,8 - - 24 13 - - SE 1027,1 25 0,0
14.02.2019 16:00:00 8,5 2,5 - - 28 15 - - SE 1027,4 30 0,0
14.02.2019 15:00:00 9,1 3,9 - - 29 16 - - SE 1027,9 30 0,0
14.02.2019 14:00:00 9,6 5,1 - - 29 16 - - SSE 1028,1 20 0,0
14.02.2019 13:00:00 9,3 4,5 - - 31 17 - - SE 1028,7 21 0,0
14.02.2019 12:00:00 8,7 6,8 - - 31 17 - - SSE 1029,4 15 0,0
14.02.2019 11:00:00 7,0 7,0 - - 24 13 - - SE 1030,0 7 0,0
14.02.2019 10:00:00 6,2 6,2 - - 24 13 - - SE 1030,2 1,4 0,0
14.02.2019 09:00:00 5,6 5,6 7,2 7,7 24 13 - - SE 1030,1 0,1 0,0
14.02.2019 08:00:00 5,4 5,4 - - 24 13 - - SE 1030,0 - 0,0
14.02.2019 07:00:00 5,9 5,9 - - 21 11 - - SE 1029,5 - 0,0
14.02.2019 06:00:00 5,5 5,5 - - 21 11 - - SE 1029,5 0,1 0,2
14.02.2019 05:00:00 5,6 5,6 - - 16 9 - - SE 1029,6 - 0,0
14.02.2019 04:00:00 6,4 6,4 - - 16 9 - - SE 1029,7 0,1 0,0
14.02.2019 03:00:00 6,3 6,3 - - 16 9 - - SE 1030,0 - 0,0
14.02.2019 02:00:00 6,6 6,6 - - 15 8 - - SE 1030,2 - 0,0
14.02.2019 01:00:00 6,0 6,0 - - 21 11 - - SE 1030,5 - 0,0
14.02.2019 00:00:00 6,1 6,1 - - 18 10 - - SE 1030,5 - 0,0
13.02.2019 23:00:00 6,2 6,2 - - 18 10 - - SE 1030,7 - 0,0
13.02.2019 22:00:00 5,8 5,8 - - 18 10 - - SE 1030,7 3,2 0,0
13.02.2019 21:00:00 6,0 6,0 - - 21 11 - - SE 1030,5 3,8 0,0
13.02.2019 20:00:00 5,7 5,6 - - 13 7 - - SE 1030,5 2,0 0,0
13.02.2019 19:00:00 6,6 6,3 - - 21 11 - - SSE 1030,5 5 0,0
13.02.2019 18:00:00 7,7 6,8 - - 22 12 - - S 1030,2 13 0,0
13.02.2019 17:00:00 7,9 6,6 - - 22 12 - - SSE 1030,3 13 0,0
13.02.2019 16:00:00 8,1 6,6 - - 26 14 - - S 1030,3 13 0,0
13.02.2019 15:00:00 8,5 6,1 - - 24 13 - - SSE 1030,5 20 0,0
13.02.2019 14:00:00 8,3 6,1 - - 26 14 - - S 1031,1 25 0,0
13.02.2019 13:00:00 8,4 5,6 - - 28 15 - - S 1031,1 24 0,0
13.02.2019 12:00:00 8,4 5,7 - - 28 15 - - SSE 1031,4 22 0,0
13.02.2019 11:00:00 8,0 6,2 - - 28 15 - - S 1031,4 20 0,0
13.02.2019 10:00:00 8,0 5,9 - - 26 14 - - S 1031,0 18 0,0
13.02.2019 09:00:00 7,7 5,9 7,0 7,7 22 12 - - SSE 1031,0 21 0,0
13.02.2019 08:00:00 7,2 5,5 - - 24 13 - - S 1031,2 21 0,0
13.02.2019 07:00:00 7,3 5,7 - - 28 15 - - SSE 1030,7 23 0,0
13.02.2019 06:00:00 6,9 6,1 - - 26 14 - - SSE 1031,0 16 0,0
13.02.2019 05:00:00 6,8 6,2 - - 24 13 - - SSE 1031,2 14 0,0
13.02.2019 04:00:00 7,0 6,3 - - 24 13 - - SSE 1031,4 15 0,0
13.02.2019 03:00:00 7,4 6,8 - - 22 12 - - S 1031,8 16 0,0
13.02.2019 02:00:00 7,0 5,8 - - 18 10 - - S 1032,5 25 0,0
13.02.2019 01:00:00 7,3 5,1 - - 18 10 - - S 1032,6 45 0,0
13.02.2019 00:00:00 8,1 4,9 - - 24 13 - - S 1032,6 40 0,0
12.02.2019 23:00:00 8,1 6,1 - - 18 10 - - S 1032,8 23 0,0
12.02.2019 22:00:00 8,1 6,8 - - 15 8 - - S 1033,0 22 0,0
12.02.2019 21:00:00 8,1 7,5 - - 13 7 - - S 1033,1 15 0,0
12.02.2019 20:00:00 8,3 8,0 - - 13 7 - - S 1033,3 10 0,0
12.02.2019 19:00:00 8,3 7,7 - - 11 6 - - S 1033,2 12 0,0
12.02.2019 18:00:00 8,4 7,6 - - 11 6 - - S 1033,0 11 0,0
12.02.2019 17:00:00 8,6 7,5 - - 11 6 - - S 1032,8 13 0,0
12.02.2019 16:00:00 9,0 7,3 - - 13 7 - - SSW 1032,8 13 0,0
12.02.2019 15:00:00 9,3 6,9 - - 13 7 - - SSW 1032,9 30 0,0
12.02.2019 14:00:00 9,4 7,0 - - 16 9 - - SSW 1032,7 35 0,0
12.02.2019 13:00:00 9,1 6,8 - - 21 11 - - SW 1033,0 30 0,0
12.02.2019 12:00:00 9,1 8,0 - - 11 6 - - SSW 1033,2 20 0,0
12.02.2019 11:00:00 8,3 8,2 - - 13 7 - - S 1033,0 19 0,0
12.02.2019 10:00:00 7,4 7,4 - - 9 5 - - S 1033,1 10 0,0
12.02.2019 09:00:00 6,9 6,9 7,0 7,7 9 5 - - SSW 1032,8 3,2 0,0
12.02.2019 08:00:00 6,4 6,4 - - 8 4 - - SSE 1032,9 5 0,0
12.02.2019 07:00:00 5,9 5,9 - - 4 2 - - S 1032,6 4,7 0,0
12.02.2019 06:00:00 5,6 5,6 - - 8 4 - - S 1032,6 7 0,0
12.02.2019 05:00:00 4,5 4,5 - - 5 3 - - S 1032,7 0,4 0,0
12.02.2019 04:00:00 4,4 4,4 - - 5 3 - - S 1032,8 - 0,2
12.02.2019 03:00:00 5,3 5,3 - - 8 4 - - S 1032,8 0,1 0,0
12.02.2019 02:00:00 3,9 3,9 - - 9 5 - - SE 1032,9 0,2 0,0
12.02.2019 01:00:00 3,4 3,2 - - 8 4 - - SSE 1033,4 9 0,0
12.02.2019 00:00:00 3,7 3,5 - - 9 5 - - S 1033,1 12 0,0
11.02.2019 23:00:00 3,7 3,2 - - 9 5 - - SSE 1033,0 16 0,0
11.02.2019 22:00:00 4,7 4,4 - - 8 4 - - SSW 1032,5 18 0,0
11.02.2019 21:00:00 4,8 4,5 - - 5 3 - - S 1032,4 19 0,0
11.02.2019 20:00:00 4,8 4,3 - - 5 3 - - SE 1032,0 15 0,0
11.02.2019 19:00:00 5,3 4,5 - - 4 2 - - ESE 1031,5 21 0,0
11.02.2019 18:00:00 5,8 4,3 - - 4 2 - - W 1031,4 20 0,0
11.02.2019 17:00:00 7,7 4,7 - - 8 4 - - N 1030,7 22 0,0
11.02.2019 16:00:00 8,4 5,1 - - 13 7 - - NNW 1030,3 27 0,0
11.02.2019 15:00:00 8,8 5,7 - - 9 5 - - NW 1029,7 23 0,0
11.02.2019 14:00:00 9,6 5,5 - - 22 12 - - NW 1028,8 30 0,0
11.02.2019 13:00:00 9,3 6,0 - - 15 8 - - N 1028,6 19 0,0
11.02.2019 12:00:00 9,8 6,2 - - 26 14 - - NNW 1027,6 30 0,0

tt = Température de l'air
td = dewpoint
tt -20cm = Température de l'air -20cm
tt -100cm = Température de l'air -100cm
ff = Vitesse du vent
fx = gusts
dd = Direction du vent
ppp = reduced air pressure
vv = visibility
rr = Quantités de précipitations

stations d'obs. à proximité